Tracking 30061 objects as of 8-Dec-2024
HD Live streaming from Space Station
objects crossing your sky now

INTELSAT 601

Track INTELSAT 601 now!
INTELSAT 601 is classified as:


NORAD ID: 21765
Int'l Code: 1991-075A
Perigee: 35,973.3 km
Apogee: 35,994.9 km
Inclination: 12.8 °
Period: 1,445.8 minutes
Semi major axis: 42355 km
RCS: 16.4798 m2 (large)
Launch date: October 29, 1991
Source: International Telecommunications Satellite Organization (ITSO)
Launch site: FRENCH GUIANA (FRGUI)

64 C-band, 24 Ku-band; Broadcasting, business services, direct-to-home TV broadcasting, telecommunications, VSAT networks; Indian Ocean region.
Your satellite tracking list
Your tracking list is empty




NASA's NSSDC Master Catalog

Two Line Element Set (TLE):
1 21765U 91075A   24342.40872457 -.00000241  00000-0  00000-0 0  9993
2 21765  12.8348  20.8555 0002551 242.8156 119.6380  0.99596645120830
Source of the keplerian elements: AFSPC